contact:dominique.lefevre@mio.osupytheas.fr, maurice.libes@osupytheas.fr, didier.mallarino@osupytheas.fr
Project:EMSO http://www.emso-fr.org/EMSO-France
Depth: 2436.0 m
Title:EMSO Ligure Ouest : Data MII capteur MICROCAT
DateTime_Computer,Latitude,Longitude,Temperature,Conductivity,Pressure,DateTime_Instrument
DateTime_Computer,Latitude,Longitude,degC,S m-1,dbar,DateTime_Instrument
2019-10-29T00:02:17Z,42.805,6.029,13.2987,4.59973,2469.867,2019-10-29T02:02:44Z
2019-10-29T00:05:20Z,42.805,6.029,13.2991,4.59980,2469.89,2019-10-29T02:05:47Z
2019-10-29T00:08:24Z,42.805,6.029,13.2971,4.59967,2469.876,2019-10-29T02:08:50Z
2019-10-29T00:11:27Z,42.805,6.029,13.2980,4.59978,2469.89,2019-10-29T02:11:53Z
2019-10-29T00:14:30Z,42.805,6.029,13.2978,4.59976,2469.89,2019-10-29T02:14:57Z
2019-10-29T00:17:33Z,42.805,6.029,13.2984,4.59969,2469.876,2019-10-29T02:18:00Z
2019-10-29T00:20:37Z,42.805,6.029,13.2983,4.59971,2469.867,2019-10-29T02:21:03Z
2019-10-29T00:23:40Z,42.805,6.029,13.2979,4.59980,2469.89,2019-10-29T02:24:06Z
2019-10-29T00:26:43Z,42.805,6.029,13.2977,4.59980,2469.83,2019-10-29T02:27:09Z
2019-10-29T00:29:46Z,42.805,6.029,13.2977,4.59981,2469.853,2019-10-29T02:30:13Z
2019-10-29T00:32:50Z,42.805,6.029,13.2978,4.59986,2469.867,2019-10-29T02:33:16Z
2019-10-29T00:35:53Z,42.805,6.029,13.2979,4.59972,2469.853,2019-10-29T02:36:19Z
2019-10-29T00:38:56Z,42.805,6.029,13.2974,4.59971,2469.83,2019-10-29T02:39:22Z
2019-10-29T00:41:59Z,42.805,6.029,13.2982,4.59971,2469.844,2019-10-29T02:42:25Z
2019-10-29T00:45:02Z,42.805,6.029,13.2978,4.59973,2469.853,2019-10-29T02:45:29Z
2019-10-29T00:48:05Z,42.805,6.029,13.2980,4.59967,2469.844,2019-10-29T02:48:32Z
2019-10-29T00:51:09Z,42.805,6.029,13.2986,4.59977,2469.83,2019-10-29T02:51:35Z
2019-10-29T00:54:12Z,42.805,6.029,13.2979,4.59971,2469.867,2019-10-29T02:54:38Z
2019-10-29T00:57:15Z,42.805,6.029,13.2975,4.59969,2469.821,2019-10-29T02:57:42Z
2019-10-29T01:00:19Z,42.805,6.029,13.2977,4.59972,2469.83,2019-10-29T03:00:45Z
2019-10-29T01:03:22Z,42.805,6.029,13.2979,4.59981,2469.83,2019-10-29T03:03:48Z
2019-10-29T01:06:25Z,42.805,6.029,13.2979,4.59978,2469.844,2019-10-29T03:06:51Z
2019-10-29T01:09:28Z,42.805,6.029,13.2985,4.59978,2469.821,2019-10-29T03:09:55Z
2019-10-29T01:12:32Z,42.805,6.029,13.2979,4.59976,2469.83,2019-10-29T03:12:58Z
2019-10-29T01:15:35Z,42.805,6.029,13.2979,4.59984,2469.797,2019-10-29T03:16:01Z
2019-10-29T01:18:38Z,42.805,6.029,13.2976,4.59971,2469.83,2019-10-29T03:19:04Z
2019-10-29T01:21:41Z,42.805,6.029,13.2982,4.59980,2469.821,2019-10-29T03:22:08Z
2019-10-29T01:24:44Z,42.805,6.029,13.2983,4.59972,2469.821,2019-10-29T03:25:11Z
2019-10-29T01:27:48Z,42.805,6.029,13.2975,4.59970,2469.844,2019-10-29T03:28:14Z
2019-10-29T01:30:51Z,42.805,6.029,13.2979,4.59985,2469.844,2019-10-29T03:31:17Z
2019-10-29T01:33:54Z,42.805,6.029,13.2986,4.59981,2469.89,2019-10-29T03:34:20Z
2019-10-29T01:36:57Z,42.805,6.029,13.2982,4.59972,2469.821,2019-10-29T03:37:24Z
2019-10-29T01:40:00Z,42.805,6.029,13.2972,4.60005,2469.806,2019-10-29T03:40:27Z
2019-10-29T01:43:04Z,42.805,6.029,13.2982,4.59980,2469.797,2019-10-29T03:43:30Z
2019-10-29T01:46:07Z,42.805,6.029,13.2990,4.59978,2469.797,2019-10-29T03:46:33Z
2019-10-29T01:49:10Z,42.805,6.029,13.2986,4.59971,2469.821,2019-10-29T03:49:36Z
2019-10-29T01:52:13Z,42.805,6.029,13.2986,4.59978,2469.853,2019-10-29T03:52:40Z
2019-10-29T01:55:17Z,42.805,6.029,13.2978,4.59978,2469.793,2019-10-29T03:55:43Z
2019-10-29T01:58:20Z,42.805,6.029,13.2978,4.59974,2469.821,2019-10-29T03:58:46Z
2019-10-29T02:01:23Z,42.805,6.029,13.2989,4.59976,2469.821,2019-10-29T04:01:49Z
2019-10-29T02:04:26Z,42.805,6.029,13.2979,4.59971,2469.821,2019-10-29T04:04:53Z
2019-10-29T02:07:29Z,42.805,6.029,13.2974,4.59966,2469.783,2019-10-29T04:07:56Z
2019-10-29T02:10:33Z,42.805,6.029,13.2982,4.59970,2469.76,2019-10-29T04:10:59Z
2019-10-29T02:13:36Z,42.805,6.029,13.2978,4.59964,2469.806,2019-10-29T04:14:02Z
2019-10-29T02:16:39Z,42.805,6.029,13.2984,4.59968,2469.821,2019-10-29T04:17:06Z
2019-10-29T02:19:42Z,42.805,6.029,13.2985,4.59972,2469.783,2019-10-29T04:20:09Z
2019-10-29T02:22:46Z,42.805,6.029,13.2986,4.59987,2469.783,2019-10-29T04:23:12Z
2019-10-29T02:25:49Z,42.805,6.029,13.2985,4.59976,2469.783,2019-10-29T04:26:15Z
2019-10-29T02:28:52Z,42.805,6.029,13.2991,4.59976,2469.806,2019-10-29T04:29:19Z
2019-10-29T02:31:55Z,42.805,6.029,13.3000,4.59973,2469.783,2019-10-29T04:32:22Z
2019-10-29T02:34:59Z,42.805,6.029,13.2979,4.59982,2469.821,2019-10-29T04:35:25Z
2019-10-29T02:38:02Z,42.805,6.029,13.2979,4.59976,2469.844,2019-10-29T04:38:28Z
2019-10-29T02:41:05Z,42.805,6.029,13.2964,4.59981,2469.821,2019-10-29T04:41:31Z
2019-10-29T02:44:08Z,42.805,6.029,13.2980,4.59974,2469.844,2019-10-29T04:44:35Z
2019-10-29T02:47:11Z,42.805,6.029,13.2982,4.59978,2469.83,2019-10-29T04:47:38Z
2019-10-29T02:50:15Z,42.805,6.029,13.2984,4.59971,2469.783,2019-10-29T04:50:41Z
2019-10-29T02:53:18Z,42.805,6.029,13.2984,4.59973,2469.806,2019-10-29T04:53:44Z
2019-10-29T02:56:21Z,42.805,6.029,13.2977,4.59975,2469.821,2019-10-29T04:56:48Z
2019-10-29T02:59:24Z,42.805,6.029,13.2979,4.59969,2469.844,2019-10-29T04:59:51Z
2019-10-29T03:02:28Z,42.805,6.029,13.2998,4.59981,2469.844,2019-10-29T05:02:54Z
2019-10-29T03:05:31Z,42.805,6.029,13.2969,4.59973,2469.797,2019-10-29T05:05:57Z
2019-10-29T03:08:34Z,42.805,6.029,13.2980,4.59984,2469.797,2019-10-29T05:09:01Z
2019-10-29T03:11:37Z,42.805,6.029,13.2987,4.59986,2469.821,2019-10-29T05:12:04Z
2019-10-29T03:14:40Z,42.805,6.029,13.2977,4.59986,2469.83,2019-10-29T05:15:07Z
2019-10-29T03:17:44Z,42.805,6.029,13.2984,4.59968,2469.83,2019-10-29T05:18:10Z
2019-10-29T03:20:47Z,42.805,6.029,13.2993,4.59981,2469.821,2019-10-29T05:21:13Z
2019-10-29T03:23:50Z,42.805,6.029,13.2975,4.59971,2469.806,2019-10-29T05:24:17Z
2019-10-29T03:26:53Z,42.805,6.029,13.2982,4.59991,2469.797,2019-10-29T05:27:20Z
2019-10-29T03:29:56Z,42.805,6.029,13.3003,4.59981,2469.844,2019-10-29T05:30:23Z
2019-10-29T03:33:00Z,42.805,6.029,13.2984,4.59973,2469.867,2019-10-29T05:33:26Z
2019-10-29T03:36:03Z,42.805,6.029,13.2986,4.59991,2469.867,2019-10-29T05:36:29Z
2019-10-29T03:39:06Z,42.805,6.029,13.2996,4.59990,2469.853,2019-10-29T05:39:33Z
2019-10-29T03:42:09Z,42.805,6.029,13.2972,4.59992,2469.867,2019-10-29T05:42:36Z
2019-10-29T03:45:13Z,42.805,6.029,13.2977,4.59973,2469.867,2019-10-29T05:45:39Z
2019-10-29T03:48:16Z,42.805,6.029,13.2973,4.60009,2469.867,2019-10-29T05:48:42Z
2019-10-29T03:51:19Z,42.805,6.029,13.2976,4.59981,2469.876,2019-10-29T05:51:46Z
2019-10-29T03:54:22Z,42.805,6.029,13.2996,4.60016,2469.867,2019-10-29T05:54:49Z
2019-10-29T03:57:25Z,42.805,6.029,13.2983,4.60009,2469.867,2019-10-29T05:57:52Z
2019-10-29T04:00:29Z,42.805,6.029,13.2991,4.59993,2469.83,2019-10-29T06:00:55Z
2019-10-29T04:03:32Z,42.805,6.029,13.2983,4.59994,2469.867,2019-10-29T06:03:58Z
2019-10-29T04:06:35Z,42.805,6.029,13.2989,4.60032,2469.876,2019-10-29T06:07:01Z
2019-10-29T04:09:38Z,42.805,6.029,13.2983,4.59973,2469.89,2019-10-29T06:10:05Z
2019-10-29T04:12:41Z,42.805,6.029,13.2976,4.59996,2469.89,2019-10-29T06:13:08Z
2019-10-29T04:15:45Z,42.805,6.029,13.2986,4.59996,2469.876,2019-10-29T06:16:11Z
2019-10-29T04:18:48Z,42.805,6.029,13.2968,4.60007,2469.876,2019-10-29T06:19:14Z
2019-10-29T04:21:51Z,42.805,6.029,13.2990,4.59976,2469.914,2019-10-29T06:22:18Z
2019-10-29T04:24:54Z,42.805,6.029,13.2991,4.60003,2469.867,2019-10-29T06:25:21Z
2019-10-29T04:27:58Z,42.805,6.029,13.2997,4.60030,2469.876,2019-10-29T06:28:24Z
2019-10-29T04:31:01Z,42.805,6.029,13.2981,4.59988,2469.89,2019-10-29T06:31:27Z
2019-10-29T04:34:04Z,42.805,6.029,13.2983,4.59991,2469.89,2019-10-29T06:34:30Z
2019-10-29T04:37:07Z,42.805,6.029,13.2990,4.60005,2469.914,2019-10-29T06:37:34Z
2019-10-29T04:40:10Z,42.805,6.029,13.2972,4.59993,2469.923,2019-10-29T06:40:37Z
2019-10-29T04:43:14Z,42.805,6.029,13.2991,4.60017,2469.96,2019-10-29T06:43:40Z
2019-10-29T04:46:17Z,42.805,6.029,13.2990,4.60022,2469.914,2019-10-29T06:46:43Z
2019-10-29T04:49:20Z,42.805,6.029,13.2990,4.60019,2469.96,2019-10-29T06:49:47Z
2019-10-29T04:52:23Z,42.805,6.029,13.2974,4.59991,2469.947,2019-10-29T06:52:50Z
2019-10-29T04:55:27Z,42.805,6.029,13.3014,4.60038,2469.923,2019-10-29T06:55:53Z
2019-10-29T04:58:30Z,42.805,6.029,13.2986,4.59998,2469.96,2019-10-29T06:58:56Z
2019-10-29T05:01:33Z,42.805,6.029,13.2974,4.59996,2469.96,2019-10-29T07:01:59Z
2019-10-29T05:04:36Z,42.805,6.029,13.2983,4.59981,2469.984,2019-10-29T07:05:03Z
2019-10-29T05:07:39Z,42.805,6.029,13.2996,4.60003,2469.947,2019-10-29T07:08:06Z
2019-10-29T05:10:43Z,42.805,6.029,13.2997,4.60031,2469.937,2019-10-29T07:11:09Z
2019-10-29T05:13:46Z,42.805,6.029,13.2977,4.60033,2469.96,2019-10-29T07:14:12Z
2019-10-29T05:16:49Z,42.805,6.029,13.2985,4.60026,2469.97,2019-10-29T07:17:16Z
2019-10-29T05:19:52Z,42.805,6.029,13.3010,4.60024,2469.97,2019-10-29T07:20:19Z
2019-10-29T05:22:56Z,42.805,6.029,13.2976,4.60033,2469.984,2019-10-29T07:23:22Z
2019-10-29T05:25:59Z,42.805,6.029,13.2991,4.60019,2469.984,2019-10-29T07:26:25Z
2019-10-29T05:29:02Z,42.805,6.029,13.3015,4.60018,2470.017,2019-10-29T07:29:29Z
2019-10-29T05:32:06Z,42.805,6.029,13.2980,4.60023,2469.984,2019-10-29T07:32:32Z
2019-10-29T05:35:09Z,42.805,6.029,13.2991,4.60019,2469.993,2019-10-29T07:35:35Z
2019-10-29T05:38:12Z,42.805,6.029,13.2984,4.60028,2469.984,2019-10-29T07:38:38Z
2019-10-29T05:41:15Z,42.805,6.029,13.2995,4.60014,2469.993,2019-10-29T07:41:42Z
2019-10-29T05:44:18Z,42.805,6.029,13.2993,4.60019,2469.993,2019-10-29T07:44:45Z
2019-10-29T05:47:22Z,42.805,6.029,13.2996,4.60016,2469.993,2019-10-29T07:47:48Z
2019-10-29T05:50:25Z,42.805,6.029,13.2974,4.60019,2470.007,2019-10-29T07:50:51Z
2019-10-29T05:53:28Z,42.805,6.029,13.2996,4.60032,2470.03,2019-10-29T07:53:55Z
2019-10-29T05:56:31Z,42.805,6.029,13.3007,4.60021,2470.007,2019-10-29T07:56:58Z
2019-10-29T05:59:34Z,42.805,6.029,13.3000,4.60029,2470.03,2019-10-29T08:00:01Z
2019-10-29T06:02:38Z,42.805,6.029,13.2986,4.60018,2470.007,2019-10-29T08:03:04Z
2019-10-29T06:05:41Z,42.805,6.029,13.3005,4.60009,2469.97,2019-10-29T08:06:07Z
2019-10-29T06:08:44Z,42.805,6.029,13.2983,4.60014,2470.007,2019-10-29T08:09:11Z
2019-10-29T06:11:47Z,42.805,6.029,13.2989,4.60031,2470.017,2019-10-29T08:12:14Z
2019-10-29T06:14:51Z,42.805,6.029,13.2995,4.60009,2470.03,2019-10-29T08:15:17Z
2019-10-29T06:17:54Z,42.805,6.029,13.2982,4.59999,2470.017,2019-10-29T08:18:21Z
2019-10-29T06:20:57Z,42.805,6.029,13.2974,4.60018,2470.053,2019-10-29T08:21:24Z
2019-10-29T06:24:00Z,42.805,6.029,13.3004,4.60008,2470.053,2019-10-29T08:24:27Z
2019-10-29T06:27:04Z,42.805,6.029,13.2986,4.60019,2470.077,2019-10-29T08:27:30Z
2019-10-29T06:30:07Z,42.805,6.029,13.2985,4.60005,2470.017,2019-10-29T08:30:33Z
2019-10-29T06:33:10Z,42.805,6.029,13.2991,4.60021,2470.04,2019-10-29T08:33:37Z
2019-10-29T06:36:14Z,42.805,6.029,13.2990,4.60013,2470.053,2019-10-29T08:36:40Z
2019-10-29T06:39:17Z,42.805,6.029,13.2992,4.60014,2470.053,2019-10-29T08:39:43Z
2019-10-29T06:42:20Z,42.805,6.029,13.2991,4.60014,2470.063,2019-10-29T08:42:47Z
2019-10-29T06:45:23Z,42.805,6.029,13.2990,4.60011,2470.053,2019-10-29T08:45:50Z
2019-10-29T06:48:26Z,42.805,6.029,13.2973,4.60013,2470.04,2019-10-29T08:48:53Z
2019-10-29T06:51:30Z,42.805,6.029,13.2988,4.60011,2470.087,2019-10-29T08:51:56Z
2019-10-29T06:54:33Z,42.805,6.029,13.2996,4.60001,2470.077,2019-10-29T08:54:59Z
2019-10-29T06:57:36Z,42.805,6.029,13.2979,4.60017,2470.03,2019-10-29T08:58:03Z
2019-10-29T07:00:39Z,42.805,6.029,13.2990,4.60015,2470.04,2019-10-29T09:01:06Z
2019-10-29T07:03:43Z,42.805,6.029,13.2981,4.60016,2470.077,2019-10-29T09:04:09Z
2019-10-29T07:06:46Z,42.805,6.029,13.2995,4.60006,2470.053,2019-10-29T09:07:12Z
2019-10-29T07:09:49Z,42.805,6.029,13.2992,4.59998,2470.053,2019-10-29T09:10:15Z
2019-10-29T07:12:52Z,42.805,6.029,13.2979,4.60014,2470.063,2019-10-29T09:13:19Z
2019-10-29T07:15:56Z,42.805,6.029,13.2993,4.60022,2470.063,2019-10-29T09:16:22Z
2019-10-29T07:18:59Z,42.805,6.029,13.2982,4.60006,2470.063,2019-10-29T09:19:25Z
2019-10-29T07:22:02Z,42.805,6.029,13.2983,4.60009,2470.077,2019-10-29T09:22:28Z
2019-10-29T07:25:05Z,42.805,6.029,13.2983,4.60021,2470.063,2019-10-29T09:25:32Z
2019-10-29T07:28:09Z,42.805,6.029,13.2984,4.60016,2470.1,2019-10-29T09:28:35Z
2019-10-29T07:31:12Z,42.805,6.029,13.2992,4.60021,2470.053,2019-10-29T09:31:38Z
2019-10-29T07:34:15Z,42.805,6.029,13.2976,4.60034,2470.063,2019-10-29T09:34:41Z
2019-10-29T07:37:18Z,42.805,6.029,13.2974,4.60019,2470.049,2019-10-29T09:37:45Z
2019-10-29T07:40:21Z,42.805,6.029,13.2966,4.60024,2470.087,2019-10-29T09:40:48Z
2019-10-29T07:43:25Z,42.805,6.029,13.2968,4.59988,2470.04,2019-10-29T09:43:51Z
2019-10-29T07:46:28Z,42.805,6.029,13.2982,4.60014,2470.077,2019-10-29T09:46:54Z
2019-10-29T07:49:31Z,42.805,6.029,13.2986,4.59998,2470.077,2019-10-29T09:49:57Z
2019-10-29T07:52:34Z,42.805,6.029,13.2998,4.59979,2470.053,2019-10-29T09:53:01Z
2019-10-29T07:55:38Z,42.805,6.029,13.2982,4.60011,2470.087,2019-10-29T09:56:04Z
2019-10-29T07:58:41Z,42.805,6.029,13.2979,4.60006,2470.053,2019-10-29T09:59:07Z
2019-10-29T08:01:44Z,42.805,6.029,13.2990,4.60015,2470.017,2019-10-29T10:02:10Z
2019-10-29T08:04:47Z,42.805,6.029,13.2978,4.60009,2470.063,2019-10-29T10:05:14Z
2019-10-29T08:07:50Z,42.805,6.029,13.2984,4.60014,2470.063,2019-10-29T10:08:17Z
2019-10-29T08:10:54Z,42.805,6.029,13.2989,4.60002,2470.063,2019-10-29T10:11:20Z
2019-10-29T08:13:57Z,42.805,6.029,13.2980,4.60006,2470.077,2019-10-29T10:14:23Z
2019-10-29T08:17:00Z,42.805,6.029,13.2973,4.59995,2470.063,2019-10-29T10:17:27Z
2019-10-29T08:20:03Z,42.805,6.029,13.2990,4.60014,2470.087,2019-10-29T10:20:30Z
2019-10-29T08:23:07Z,42.805,6.029,13.3001,4.60013,2470.077,2019-10-29T10:23:33Z
2019-10-29T08:26:10Z,42.805,6.029,13.2982,4.60019,2470.073,2019-10-29T10:26:36Z
2019-10-29T08:29:13Z,42.805,6.029,13.2996,4.60023,2470.04,2019-10-29T10:29:40Z
2019-10-29T08:32:16Z,42.805,6.029,13.2985,4.60019,2470.077,2019-10-29T10:32:43Z
2019-10-29T08:35:20Z,42.805,6.029,13.2977,4.60008,2470.077,2019-10-29T10:35:46Z
2019-10-29T08:38:23Z,42.805,6.029,13.2998,4.60008,2470.04,2019-10-29T10:38:49Z
2019-10-29T08:41:26Z,42.805,6.029,13.2981,4.60003,2470.077,2019-10-29T10:41:52Z
2019-10-29T08:44:29Z,42.805,6.029,13.2974,4.60014,2470.077,2019-10-29T10:44:56Z
2019-10-29T08:47:32Z,42.805,6.029,13.2986,4.60015,2470.063,2019-10-29T10:47:59Z
2019-10-29T08:50:36Z,42.805,6.029,13.2990,4.60009,2470.077,2019-10-29T10:51:02Z
2019-10-29T08:53:39Z,42.805,6.029,13.2984,4.60008,2470.063,2019-10-29T10:54:05Z
2019-10-29T08:56:42Z,42.805,6.029,13.2987,4.60017,2470.063,2019-10-29T10:57:09Z
2019-10-29T08:59:45Z,42.805,6.029,13.3005,4.60011,2470.04,2019-10-29T11:00:12Z
2019-10-29T09:02:49Z,42.805,6.029,13.2993,4.59985,2470.053,2019-10-29T11:03:15Z
2019-10-29T09:05:52Z,42.805,6.029,13.2991,4.60003,2470.053,2019-10-29T11:06:18Z
2019-10-29T09:08:55Z,42.805,6.029,13.2971,4.59998,2470.04,2019-10-29T11:09:21Z
2019-10-29T09:11:58Z,42.805,6.029,13.3000,4.60013,2470.087,2019-10-29T11:12:25Z
2019-10-29T09:15:01Z,42.805,6.029,13.3000,4.60017,2470.026,2019-10-29T11:15:28Z
2019-10-29T09:18:05Z,42.805,6.029,13.3002,4.60014,2470.03,2019-10-29T11:18:31Z
2019-10-29T09:21:08Z,42.805,6.029,13.2980,4.60029,2470.1,2019-10-29T11:21:34Z
2019-10-29T09:24:11Z,42.805,6.029,13.2989,4.60001,2470.04,2019-10-29T11:24:37Z
2019-10-29T09:27:14Z,42.805,6.029,13.2973,4.60006,2470.053,2019-10-29T11:27:41Z
2019-10-29T09:30:17Z,42.805,6.029,13.2990,4.60003,2470.03,2019-10-29T11:30:44Z
2019-10-29T09:33:21Z,42.805,6.029,13.2983,4.60016,2470.04,2019-10-29T11:33:47Z
2019-10-29T09:36:24Z,42.805,6.029,13.2974,4.60009,2470.04,2019-10-29T11:36:50Z
2019-10-29T09:39:27Z,42.805,6.029,13.2986,4.60016,2470.053,2019-10-29T11:39:54Z
2019-10-29T09:42:30Z,42.805,6.029,13.2996,4.60011,2470.053,2019-10-29T11:42:57Z
2019-10-29T09:45:34Z,42.805,6.029,13.2971,4.60011,2470.053,2019-10-29T11:46:00Z
2019-10-29T09:48:37Z,42.805,6.029,13.2985,4.60003,2470.053,2019-10-29T11:49:03Z
2019-10-29T09:51:40Z,42.805,6.029,13.2987,4.60024,2470.053,2019-10-29T11:52:07Z
2019-10-29T09:54:43Z,42.805,6.029,13.2987,4.60021,2470.017,2019-10-29T11:55:10Z
2019-10-29T09:57:47Z,42.805,6.029,13.2979,4.60005,2470.03,2019-10-29T11:58:13Z
2019-10-29T10:00:50Z,42.805,6.029,13.2989,4.60014,2470.03,2019-10-29T12:01:16Z
2019-10-29T10:03:53Z,42.805,6.029,13.2996,4.59986,2470.03,2019-10-29T12:04:19Z
2019-10-29T10:06:56Z,42.805,6.029,13.2980,4.60007,2469.993,2019-10-29T12:07:23Z
2019-10-29T10:09:59Z,42.805,6.029,13.2992,4.60027,2469.993,2019-10-29T12:10:26Z
2019-10-29T10:13:02Z,42.805,6.029,13.2991,4.60022,2470.007,2019-10-29T12:13:29Z
2019-10-29T10:16:06Z,42.805,6.029,13.2990,4.60024,2470.03,2019-10-29T12:16:32Z
2019-10-29T10:19:09Z,42.805,6.029,13.2982,4.60025,2470.007,2019-10-29T12:19:35Z
2019-10-29T10:22:12Z,42.805,6.029,13.2986,4.60015,2470.007,2019-10-29T12:22:39Z
2019-10-29T10:25:15Z,42.805,6.029,13.2977,4.60007,2470.03,2019-10-29T12:25:42Z
2019-10-29T10:28:19Z,42.805,6.029,13.2976,4.60006,2470.03,2019-10-29T12:28:45Z
2019-10-29T10:31:22Z,42.805,6.029,13.2973,4.60003,2469.993,2019-10-29T12:31:48Z
2019-10-29T10:34:25Z,42.805,6.029,13.2975,4.60003,2469.993,2019-10-29T12:34:51Z
2019-10-29T10:37:28Z,42.805,6.029,13.2969,4.60019,2470.03,2019-10-29T12:37:55Z
2019-10-29T10:40:31Z,42.805,6.029,13.2988,4.59979,2469.984,2019-10-29T12:40:58Z
2019-10-29T10:43:35Z,42.805,6.029,13.2968,4.59999,2470.03,2019-10-29T12:44:01Z
2019-10-29T10:46:38Z,42.805,6.029,13.2983,4.60000,2469.947,2019-10-29T12:47:04Z
2019-10-29T10:49:41Z,42.805,6.029,13.2988,4.60015,2469.97,2019-10-29T12:50:07Z
2019-10-29T10:52:44Z,42.805,6.029,13.2990,4.60006,2470.03,2019-10-29T12:53:11Z
2019-10-29T10:55:47Z,42.805,6.029,13.3014,4.60011,2470.03,2019-10-29T12:56:14Z
2019-10-29T10:58:51Z,42.805,6.029,13.2967,4.60027,2469.984,2019-10-29T12:59:17Z
2019-10-29T11:01:54Z,42.805,6.029,13.2970,4.60016,2469.993,2019-10-29T13:02:20Z
2019-10-29T11:04:57Z,42.805,6.029,13.2984,4.60023,2469.97,2019-10-29T13:05:24Z
2019-10-29T11:08:00Z,42.805,6.029,13.2976,4.60032,2469.984,2019-10-29T13:08:27Z
2019-10-29T11:11:04Z,42.805,6.029,13.2983,4.60029,2469.984,2019-10-29T13:11:30Z
2019-10-29T11:14:07Z,42.805,6.029,13.3004,4.60007,2469.993,2019-10-29T13:14:33Z
2019-10-29T11:17:10Z,42.805,6.029,13.3004,4.60002,2469.937,2019-10-29T13:17:36Z
2019-10-29T11:20:13Z,42.805,6.029,13.2970,4.59995,2469.984,2019-10-29T13:20:40Z
2019-10-29T11:23:16Z,42.805,6.029,13.2970,4.59996,2469.97,2019-10-29T13:23:43Z
2019-10-29T11:26:20Z,42.805,6.029,13.2975,4.59991,2469.937,2019-10-29T13:26:46Z
2019-10-29T11:29:23Z,42.805,6.029,13.2982,4.60004,2469.984,2019-10-29T13:29:49Z
2019-10-29T11:32:26Z,42.805,6.029,13.2998,4.60023,2469.96,2019-10-29T13:32:53Z
2019-10-29T11:35:29Z,42.805,6.029,13.2982,4.59969,2469.97,2019-10-29T13:35:56Z
2019-10-29T11:38:33Z,42.805,6.029,13.2995,4.59986,2469.947,2019-10-29T13:38:59Z
2019-10-29T11:41:36Z,42.805,6.029,13.2979,4.59983,2469.96,2019-10-29T13:42:02Z
2019-10-29T11:44:39Z,42.805,6.029,13.2983,4.59999,2469.984,2019-10-29T13:45:05Z
2019-10-29T11:47:42Z,42.805,6.029,13.2970,4.59991,2469.923,2019-10-29T13:48:09Z
2019-10-29T11:50:45Z,42.805,6.029,13.2986,4.59976,2469.947,2019-10-29T13:51:12Z
2019-10-29T11:53:49Z,42.805,6.029,13.2981,4.59979,2469.947,2019-10-29T13:54:15Z
2019-10-29T11:56:52Z,42.805,6.029,13.2976,4.60022,2469.947,2019-10-29T13:57:18Z
2019-10-29T11:59:55Z,42.805,6.029,13.2992,4.59992,2469.923,2019-10-29T14:00:21Z
2019-10-29T12:02:58Z,42.805,6.029,13.2990,4.59972,2469.9,2019-10-29T14:03:25Z
2019-10-29T12:06:01Z,42.805,6.029,13.2993,4.59999,2469.937,2019-10-29T14:06:28Z
2019-10-29T12:09:05Z,42.805,6.029,13.2983,4.59990,2469.923,2019-10-29T14:09:31Z
2019-10-29T12:12:08Z,42.805,6.029,13.2991,4.59980,2469.9,2019-10-29T14:12:34Z
2019-10-29T12:15:11Z,42.805,6.029,13.2975,4.59977,2469.923,2019-10-29T14:15:37Z
2019-10-29T12:18:14Z,42.805,6.029,13.2979,4.59988,2469.937,2019-10-29T14:18:41Z
2019-10-29T12:21:17Z,42.805,6.029,13.2983,4.59981,2469.923,2019-10-29T14:21:44Z
2019-10-29T12:24:21Z,42.805,6.029,13.2976,4.59985,2469.937,2019-10-29T14:24:47Z
2019-10-29T12:27:24Z,42.805,6.029,13.2968,4.59987,2469.914,2019-10-29T14:27:50Z
2019-10-29T12:30:27Z,42.805,6.029,13.2982,4.59978,2469.914,2019-10-29T14:30:53Z
2019-10-29T12:33:30Z,42.805,6.029,13.2973,4.59981,2469.923,2019-10-29T14:33:57Z
2019-10-29T12:36:33Z,42.805,6.029,13.2982,4.59987,2469.9,2019-10-29T14:37:00Z
2019-10-29T12:39:37Z,42.805,6.029,13.3005,4.59985,2469.923,2019-10-29T14:40:03Z
2019-10-29T12:42:40Z,42.805,6.029,13.2971,4.59969,2469.89,2019-10-29T14:43:06Z
2019-10-29T12:45:43Z,42.805,6.029,13.2980,4.59978,2469.9,2019-10-29T14:46:09Z
2019-10-29T12:48:46Z,42.805,6.029,13.2990,4.59985,2469.89,2019-10-29T14:49:13Z
2019-10-29T12:51:49Z,42.805,6.029,13.2967,4.59991,2469.9,2019-10-29T14:52:16Z
2019-10-29T12:54:53Z,42.805,6.029,13.2973,4.59985,2469.9,2019-10-29T14:55:19Z
2019-10-29T12:57:56Z,42.805,6.029,13.2985,4.59973,2469.9,2019-10-29T14:58:22Z
2019-10-29T13:00:59Z,42.805,6.029,13.2971,4.59983,2469.886,2019-10-29T15:01:26Z
2019-10-29T13:04:02Z,42.805,6.029,13.2970,4.59989,2469.876,2019-10-29T15:04:29Z
2019-10-29T13:07:05Z,42.805,6.029,13.2981,4.59977,2469.876,2019-10-29T15:07:32Z
2019-10-29T13:10:09Z,42.805,6.029,13.2985,4.59976,2469.876,2019-10-29T15:10:35Z
2019-10-29T13:13:12Z,42.805,6.029,13.2983,4.59988,2469.9,2019-10-29T15:13:38Z
2019-10-29T13:16:15Z,42.805,6.029,13.2974,4.59991,2469.853,2019-10-29T15:16:41Z
2019-10-29T13:19:18Z,42.805,6.029,13.2988,4.59996,2469.876,2019-10-29T15:19:45Z
2019-10-29T13:22:21Z,42.805,6.029,13.2978,4.60013,2469.867,2019-10-29T15:22:48Z
2019-10-29T13:25:25Z,42.805,6.029,13.2986,4.59986,2469.867,2019-10-29T15:25:51Z
2019-10-29T13:28:28Z,42.805,6.029,13.2971,4.59968,2469.89,2019-10-29T15:28:54Z
2019-10-29T13:31:31Z,42.805,6.029,13.2976,4.59988,2469.876,2019-10-29T15:31:57Z
2019-10-29T13:34:35Z,42.805,6.029,13.2979,4.59973,2469.867,2019-10-29T15:35:01Z
2019-10-29T13:37:38Z,42.805,6.029,13.2993,4.59985,2469.853,2019-10-29T15:38:05Z
2019-10-29T13:40:41Z,42.805,6.029,13.2969,4.59990,2469.881,2019-10-29T15:41:08Z
2019-10-29T13:43:44Z,42.805,6.029,13.2982,4.59999,2469.83,2019-10-29T15:44:11Z
2019-10-29T13:46:48Z,42.805,6.029,13.2984,4.59996,2469.9,2019-10-29T15:47:14Z
2019-10-29T13:49:51Z,42.805,6.029,13.2994,4.59986,2469.83,2019-10-29T15:50:17Z
2019-10-29T13:52:54Z,42.805,6.029,13.2985,4.59983,2469.853,2019-10-29T15:53:20Z
2019-10-29T13:55:57Z,42.805,6.029,13.2980,4.59981,2469.867,2019-10-29T15:56:24Z
2019-10-29T13:59:00Z,42.805,6.029,13.2986,4.59976,2469.844,2019-10-29T15:59:27Z
2019-10-29T14:02:04Z,42.805,6.029,13.2995,4.59986,2469.876,2019-10-29T16:02:30Z
2019-10-29T14:05:07Z,42.805,6.029,13.2991,4.59993,2469.89,2019-10-29T16:05:33Z
2019-10-29T14:08:10Z,42.805,6.029,13.2986,4.59984,2469.876,2019-10-29T16:08:37Z
2019-10-29T14:11:13Z,42.805,6.029,13.2995,4.59984,2469.867,2019-10-29T16:11:40Z
2019-10-29T14:14:17Z,42.805,6.029,13.2994,4.59991,2469.844,2019-10-29T16:14:43Z
2019-10-29T14:17:20Z,42.805,6.029,13.2984,4.59984,2469.876,2019-10-29T16:17:46Z
2019-10-29T14:20:23Z,42.805,6.029,13.2989,4.59973,2469.867,2019-10-29T16:20:49Z
2019-10-29T14:23:26Z,42.805,6.029,13.2990,4.59975,2469.853,2019-10-29T16:23:53Z
2019-10-29T14:26:30Z,42.805,6.029,13.2998,4.59982,2469.853,2019-10-29T16:26:56Z
2019-10-29T14:29:33Z,42.805,6.029,13.2995,4.59975,2469.853,2019-10-29T16:29:59Z
2019-10-29T14:32:36Z,42.805,6.029,13.2980,4.59978,2469.844,2019-10-29T16:33:02Z
2019-10-29T14:35:39Z,42.805,6.029,13.2986,4.59985,2469.853,2019-10-29T16:36:06Z
2019-10-29T14:38:42Z,42.805,6.029,13.2979,4.59985,2469.853,2019-10-29T16:39:09Z
2019-10-29T14:41:45Z,42.805,6.029,13.2983,4.59991,2469.867,2019-10-29T16:42:12Z
2019-10-29T14:44:49Z,42.805,6.029,13.3006,4.59981,2469.867,2019-10-29T16:45:15Z
2019-10-29T14:47:52Z,42.805,6.029,13.2991,4.60000,2469.867,2019-10-29T16:48:18Z
2019-10-29T14:50:55Z,42.805,6.029,13.2998,4.59972,2469.83,2019-10-29T16:51:22Z
2019-10-29T14:53:58Z,42.805,6.029,13.2996,4.59979,2469.89,2019-10-29T16:54:25Z
2019-10-29T14:57:02Z,42.805,6.029,13.2983,4.59986,2469.844,2019-10-29T16:57:28Z
2019-10-29T15:00:05Z,42.805,6.029,13.2988,4.59982,2469.83,2019-10-29T17:00:31Z
2019-10-29T15:03:08Z,42.805,6.029,13.2992,4.59988,2469.876,2019-10-29T17:03:35Z